Time,TemperatureF,DewpointF,PressureIn,WindDirection,WindDirectionDegrees,WindSpeedMPH,WindSpeedGustMPH,Humidity,HourlyPrecipIn,Conditions,Clouds,dailyrainin,SoftwareType,DateUTC
2013-05-28 00:01:00,74.1,71.0,30.12,East,82,4.0,-999.0,89,-99.99,,,0.77,weatherlink.com 1.10,2013-05-28 04:01:00,
2013-05-28 00:16:00,73.9,71.0,30.12,ENE,67,5.0,-999.0,90,-99.99,,,0.77,weatherlink.com 1.10,2013-05-28 04:16:00,
2013-05-28 00:31:00,73.7,71.0,30.12,East,90,6.0,-999.0,90,-99.99,,,0.77,weatherlink.com 1.10,2013-05-28 04:31:00,
2013-05-28 00:46:00,73.5,71.0,30.12,ENE,62,0.0,-999.0,91,-99.99,,,0.77,weatherlink.com 1.10,2013-05-28 04:46:00,
2013-05-28 01:01:00,73.4,71.0,30.12,ENE,75,1.0,-999.0,91,-99.99,,,0.77,weatherlink.com 1.10,2013-05-28 05:01:00,
2013-05-28 01:16:00,73.4,71.0,30.12,ENE,76,0.0,-999.0,91,-99.99,,,0.77,weatherlink.com 1.10,2013-05-28 05:16:00,
2013-05-28 01:31:00,73.5,71.0,30.11,ENE,74,6.0,-999.0,92,-99.99,,,0.77,weatherlink.com 1.10,2013-05-28 05:31:00,
2013-05-28 01:46:00,73.5,71.0,30.10,ENE,78,4.0,-999.0,92,-99.99,,,0.77,weatherlink.com 1.10,2013-05-28 05:46:00,
2013-05-28 02:01:00,73.5,71.0,30.10,East,92,5.0,-999.0,92,-99.99,,,0.77,weatherlink.com 1.10,2013-05-28 06:01:00,
2013-05-28 02:16:00,73.5,71.0,30.09,ENE,59,1.0,-999.0,92,-99.99,,,0.77,weatherlink.com 1.10,2013-05-28 06:16:00,
2013-05-28 02:31:00,73.5,71.0,30.08,ENE,66,5.0,-999.0,92,-99.99,,,0.77,weatherlink.com 1.10,2013-05-28 06:31:00,
2013-05-28 02:46:00,73.5,71.0,30.07,East,88,0.0,-999.0,92,-99.99,,,0.77,weatherlink.com 1.10,2013-05-28 06:46:00,
2013-05-28 03:01:00,73.5,71.0,30.06,East,96,4.0,-999.0,93,-99.99,,,0.77,weatherlink.com 1.10,2013-05-28 07:01:00,
2013-05-28 03:16:00,73.4,71.0,30.07,East,94,5.0,-999.0,93,-99.99,,,0.77,weatherlink.com 1.10,2013-05-28 07:16:00,
2013-05-28 03:31:00,73.4,71.0,30.07,East,93,6.0,-999.0,93,-99.99,,,0.77,weatherlink.com 1.10,2013-05-28 07:31:00,
2013-05-28 03:46:00,73.5,71.0,30.06,ENE,76,1.0,-999.0,93,-99.99,,,0.77,weatherlink.com 1.10,2013-05-28 07:46:00,
2013-05-28 04:01:00,73.4,71.0,30.06,East,93,4.0,-999.0,93,-99.99,,,0.77,weatherlink.com 1.10,2013-05-28 08:01:00,
2013-05-28 04:16:00,73.3,71.0,30.05,East,90,2.0,-999.0,93,-99.99,,,0.77,weatherlink.com 1.10,2013-05-28 08:16:00,
2013-05-28 04:31:00,73.1,71.0,30.05,ENE,67,0.0,-999.0,93,-99.99,,,0.77,weatherlink.com 1.10,2013-05-28 08:31:00,
2013-05-28 04:46:00,72.9,71.0,30.05,East,81,2.0,-999.0,94,-99.99,,,0.77,weatherlink.com 1.10,2013-05-28 08:46:00,
2013-05-28 05:01:00,72.9,71.0,30.05,ENE,63,3.0,-999.0,94,-99.99,,,0.77,weatherlink.com 1.10,2013-05-28 09:01:00,
2013-05-28 05:16:00,72.8,71.0,30.04,ENE,57,6.0,-999.0,94,-99.99,,,0.77,weatherlink.com 1.10,2013-05-28 09:16:00,
2013-05-28 05:31:00,72.9,71.0,30.05,East,84,4.0,-999.0,95,-99.99,,,0.77,weatherlink.com 1.10,2013-05-28 09:31:00,
2013-05-28 05:46:00,72.8,71.0,30.05,East,89,4.0,-999.0,95,-99.99,,,0.00,weatherlink.com 1.10,2013-05-28 09:46:00,
2013-05-28 06:01:00,72.7,71.0,30.06,ENE,78,3.0,-999.0,95,-99.99,,,0.00,weatherlink.com 1.10,2013-05-28 10:01:00,
2013-05-28 06:16:00,72.5,71.0,30.06,East,91,5.0,-999.0,95,-99.99,,,0.00,weatherlink.com 1.10,2013-05-28 10:16:00,
2013-05-28 06:31:00,72.5,71.0,30.07,East,84,2.0,-999.0,95,-99.99,,,0.00,weatherlink.com 1.10,2013-05-28 10:31:00,
2013-05-28 06:46:00,72.5,71.0,30.08,ENE,75,4.0,-999.0,96,-99.99,,,0.00,weatherlink.com 1.10,2013-05-28 10:46:00,
2013-05-28 07:01:00,72.6,71.0,30.08,East,81,3.0,-999.0,95,-99.99,,,0.00,weatherlink.com 1.10,2013-05-28 11:01:00,
2013-05-28 07:16:00,72.7,71.0,30.08,East,91,2.0,-999.0,95,-99.99,,,0.00,weatherlink.com 1.10,2013-05-28 11:16:00,
2013-05-28 07:31:00,73.0,72.0,30.09,East,85,3.0,-999.0,96,-99.99,,,0.00,weatherlink.com 1.10,2013-05-28 11:31:00,
2013-05-28 07:46:00,73.3,72.0,30.09,East,100,1.0,-999.0,95,-99.99,,,0.00,weatherlink.com 1.10,2013-05-28 11:46:00,
2013-05-28 08:01:00,73.9,72.0,30.08,ESE,103,0.0,-999.0,95,-99.99,,,0.00,weatherlink.com 1.10,2013-05-28 12:01:00,
2013-05-28 08:16:00,74.3,73.0,30.08,East,88,5.0,-999.0,95,-99.99,,,0.00,weatherlink.com 1.10,2013-05-28 12:16:00,
2013-05-28 08:31:00,74.9,73.0,30.08,East,93,4.0,-999.0,94,-99.99,,,0.00,weatherlink.com 1.10,2013-05-28 12:31:00,
2013-05-28 08:46:00,75.6,74.0,30.08,ENE,58,7.0,-999.0,93,-99.99,,,0.00,weatherlink.com 1.10,2013-05-28 12:46:00,
2013-05-28 09:01:00,76.6,74.0,30.08,East,95,2.0,-999.0,91,-99.99,,,0.00,weatherlink.com 1.10,2013-05-28 13:01:00,
2013-05-28 09:16:00,77.0,74.0,30.08,ENE,67,14.0,-999.0,89,-99.99,,,0.00,weatherlink.com 1.10,2013-05-28 13:16:00,
2013-05-28 09:31:00,77.7,74.0,30.09,East,82,17.0,-999.0,88,-99.99,,,0.00,weatherlink.com 1.10,2013-05-28 13:31:00,
2013-05-28 09:46:00,78.1,74.0,30.09,ESE,105,5.0,-999.0,88,-99.99,,,0.00,weatherlink.com 1.10,2013-05-28 13:46:00,
2013-05-28 10:02:00,78.0,74.0,30.09,East,92,9.0,-999.0,87,-99.99,,,0.00,weatherlink.com 1.10,2013-05-28 14:02:00,
2013-05-28 10:17:00,78.0,74.0,30.09,East,97,9.0,-999.0,86,-99.99,,,0.00,weatherlink.com 1.10,2013-05-28 14:17:00,
2013-05-28 10:32:00,78.6,74.0,30.09,East,92,8.0,-999.0,85,-99.99,,,0.00,weatherlink.com 1.10,2013-05-28 14:32:00,
2013-05-28 10:47:00,79.7,75.0,30.09,ENE,68,11.0,-999.0,84,-99.99,,,0.00,weatherlink.com 1.10,2013-05-28 14:47:00,
2013-05-28 11:02:00,80.4,75.0,30.09,ESE,113,15.0,-999.0,83,-99.99,,,0.00,weatherlink.com 1.10,2013-05-28 15:02:00,
2013-05-28 11:17:00,81.2,75.0,30.09,SE,136,13.0,-999.0,82,-99.99,,,0.00,weatherlink.com 1.10,2013-05-28 15:17:00,
2013-05-28 11:32:00,81.5,75.0,30.09,ENE,73,10.0,-999.0,81,-99.99,,,0.00,weatherlink.com 1.10,2013-05-28 15:32:00,
2013-05-28 11:47:00,82.1,75.0,30.09,East,87,11.0,-999.0,79,-99.99,,,0.00,weatherlink.com 1.10,2013-05-28 15:47:00,
2013-05-28 12:02:00,82.3,76.0,30.09,East,84,3.0,-999.0,80,-99.99,,,0.00,weatherlink.com 1.10,2013-05-28 16:02:00,
2013-05-28 12:17:00,82.7,75.0,30.09,ENE,78,8.0,-999.0,77,-99.99,,,0.00,weatherlink.com 1.10,2013-05-28 16:17:00,
2013-05-28 12:32:00,83.2,74.0,30.08,ENE,57,10.0,-999.0,74,-99.99,,,0.00,weatherlink.com 1.10,2013-05-28 16:32:00,
2013-05-28 12:47:00,84.0,75.0,30.08,East,90,14.0,-999.0,73,-99.99,,,0.00,weatherlink.com 1.10,2013-05-28 16:47:00,
2013-05-28 13:02:00,85.2,76.0,30.07,East,92,2.0,-999.0,73,-99.99,,,0.00,weatherlink.com 1.10,2013-05-28 17:02:00,
2013-05-28 13:17:00,85.4,75.0,30.07,SSE,160,0.0,-999.0,70,-99.99,,,0.00,weatherlink.com 1.10,2013-05-28 17:17:00,
2013-05-28 13:32:00,85.6,76.0,30.06,East,82,8.0,-999.0,73,-99.99,,,0.00,weatherlink.com 1.10,2013-05-28 17:32:00,
2013-05-28 13:47:00,85.2,74.0,30.07,ESE,103,15.0,-999.0,70,-99.99,,,0.00,weatherlink.com 1.10,2013-05-28 17:47:00,
2013-05-28 14:02:00,85.6,75.0,30.07,East,96,15.0,-999.0,70,-99.99,,,0.00,weatherlink.com 1.10,2013-05-28 18:02:00,
2013-05-28 14:17:00,85.6,75.0,30.06,East,80,14.0,-999.0,70,-99.99,,,0.00,weatherlink.com 1.10,2013-05-28 18:17:00,
2013-05-28 14:32:00,86.0,73.0,30.05,ESE,110,4.0,-999.0,66,-99.99,,,0.00,weatherlink.com 1.10,2013-05-28 18:32:00,
2013-05-28 14:47:00,86.2,74.0,30.05,East,96,11.0,-999.0,68,-99.99,,,0.00,weatherlink.com 1.10,2013-05-28 18:47:00,
2013-05-28 15:02:00,85.7,74.0,30.05,ENE,65,6.0,-999.0,68,-99.99,,,0.00,weatherlink.com 1.10,2013-05-28 19:02:00,
2013-05-28 15:17:00,85.0,75.0,30.06,SSE,157,2.0,-999.0,72,-99.99,,,0.00,weatherlink.com 1.10,2013-05-28 19:17:00,
2013-05-28 15:32:00,81.9,73.0,30.05,SSE,157,5.0,-999.0,74,-99.99,,,0.00,weatherlink.com 1.10,2013-05-28 19:32:00,
2013-05-28 15:47:00,79.8,73.0,30.05,SSE,159,10.0,-999.0,79,-99.99,,,0.00,weatherlink.com 1.10,2013-05-28 19:47:00,
2013-05-28 16:02:00,78.7,73.0,30.05,SE,133,4.0,-999.0,82,-99.99,,,0.00,weatherlink.com 1.10,2013-05-28 20:02:00,
2013-05-28 16:17:00,77.9,72.0,30.05,SSE,148,0.0,-999.0,83,-99.99,,,0.00,weatherlink.com 1.10,2013-05-28 20:17:00,
2013-05-28 16:32:00,77.4,73.0,30.05,SSE,159,0.0,-999.0,85,-99.99,,,0.00,weatherlink.com 1.10,2013-05-28 20:32:00,
2013-05-28 16:47:00,77.0,73.0,30.06,South,169,0.0,-999.0,86,-99.99,,,0.00,weatherlink.com 1.10,2013-05-28 20:47:00,
2013-05-28 17:02:00,76.8,73.0,30.06,ESE,123,2.0,-999.0,87,-99.99,,,0.00,weatherlink.com 1.10,2013-05-28 21:02:00,
2013-05-28 17:17:00,76.9,73.0,30.06,SE,130,0.0,-999.0,86,-99.99,,,0.00,weatherlink.com 1.10,2013-05-28 21:17:00,
2013-05-28 17:32:00,77.1,72.0,30.07,SSE,152,0.0,-999.0,85,-99.99,,,0.00,weatherlink.com 1.10,2013-05-28 21:32:00,
2013-05-28 17:47:00,77.0,72.0,30.05,ESE,111,4.0,-999.0,83,-99.99,,,0.00,weatherlink.com 1.10,2013-05-28 21:47:00,
2013-05-28 18:02:00,77.2,72.0,30.05,ESE,119,0.0,-999.0,83,-99.99,,,0.00,weatherlink.com 1.10,2013-05-28 22:02:00,
2013-05-28 18:17:00,77.3,71.0,30.05,East,83,5.0,-999.0,82,-99.99,,,0.00,weatherlink.com 1.10,2013-05-28 22:17:00,
2013-05-28 18:32:00,77.0,72.0,30.05,East,85,4.0,-999.0,84,-99.99,,,0.00,weatherlink.com 1.10,2013-05-28 22:32:00,
2013-05-28 18:47:00,76.6,72.0,30.05,East,96,4.0,-999.0,84,-99.99,,,0.00,weatherlink.com 1.10,2013-05-28 22:47:00,
2013-05-28 19:02:00,76.5,71.0,30.05,ESE,110,5.0,-999.0,83,-99.99,,,0.00,weatherlink.com 1.10,2013-05-28 23:02:00,
2013-05-28 19:17:00,76.4,72.0,30.05,ESE,107,0.0,-999.0,85,-99.99,,,0.00,weatherlink.com 1.10,2013-05-28 23:17:00,
2013-05-28 19:32:00,76.2,71.0,30.06,SE,128,4.0,-999.0,85,-99.99,,,0.00,weatherlink.com 1.10,2013-05-28 23:32:00,
2013-05-28 19:47:00,76.0,71.0,30.06,ESE,108,4.0,-999.0,85,-99.99,,,0.00,weatherlink.com 1.10,2013-05-28 23:47:00,
2013-05-28 20:02:00,75.6,72.0,30.06,ESE,112,2.0,-999.0,87,-99.99,,,0.00,weatherlink.com 1.10,2013-05-29 00:02:00,
2013-05-28 20:17:00,75.2,72.0,30.06,East,87,0.0,-999.0,88,-99.99,,,0.00,weatherlink.com 1.10,2013-05-29 00:17:00,
2013-05-28 20:32:00,75.0,72.0,30.06,ESE,123,0.0,-999.0,89,-99.99,,,0.00,weatherlink.com 1.10,2013-05-29 00:32:00,
2013-05-28 20:47:00,74.8,71.0,30.06,East,98,0.0,-999.0,89,-99.99,,,0.00,weatherlink.com 1.10,2013-05-29 00:47:00,
2013-05-28 21:02:00,74.7,71.0,30.06,SE,141,5.0,-999.0,89,-99.99,,,0.00,weatherlink.com 1.10,2013-05-29 01:02:00,
2013-05-28 21:17:00,74.6,72.0,30.07,East,96,4.0,-999.0,90,-99.99,,,0.00,weatherlink.com 1.10,2013-05-29 01:17:00,
2013-05-28 21:32:00,74.6,72.0,30.07,East,94,4.0,-999.0,91,-99.99,,,0.00,weatherlink.com 1.10,2013-05-29 01:32:00,
2013-05-28 21:47:00,74.4,72.0,30.07,ESE,104,0.0,-999.0,91,-99.99,,,0.00,weatherlink.com 1.10,2013-05-29 01:47:00,
2013-05-28 22:02:00,74.3,71.0,30.07,East,101,2.0,-999.0,90,-99.99,,,0.00,weatherlink.com 1.10,2013-05-29 02:02:00,
2013-05-28 22:17:00,74.2,71.0,30.07,East,79,5.0,-999.0,90,-99.99,,,0.00,weatherlink.com 1.10,2013-05-29 02:17:00,
2013-05-28 22:32:00,74.1,71.0,30.07,East,98,4.0,-999.0,90,-99.99,,,0.00,weatherlink.com 1.10,2013-05-29 02:32:00,
2013-05-28 22:47:00,74.0,71.0,30.08,East,99,6.0,-999.0,91,-99.99,,,0.00,weatherlink.com 1.10,2013-05-29 02:47:00,
2013-05-28 23:02:00,73.9,72.0,30.09,ENE,73,6.0,-999.0,92,-99.99,,,0.00,weatherlink.com 1.10,2013-05-29 03:02:00,
2013-05-28 23:17:00,73.7,72.0,30.09,East,83,3.0,-999.0,93,-99.99,,,0.00,weatherlink.com 1.10,2013-05-29 03:17:00,
2013-05-28 23:32:00,73.5,71.0,30.08,East,83,0.0,-999.0,93,-99.99,,,0.00,weatherlink.com 1.10,2013-05-29 03:32:00,
2013-05-28 23:47:00,73.3,72.0,30.07,East,83,0.0,-999.0,94,-99.99,,,0.00,weatherlink.com 1.10,2013-05-29 03:47:00,